Location: *
(51.5000°N, 0.1100°W)
Time: 06:29:51
(UTC+00:00)

IDEFIX/ARIANE 42P - Pass Details

Date: 13 August 2024
Orbit: 782 x 799 km, 98.5° (Epoch: 08 September)

Event Time Altitude Azimuth Distance (km) Brightness Sun altitude
Rises 02:50:48 0° 10° (N) 3,285 6.8 -14.8°
Reaches altitude 10° 02:53:15 10° 2° (N) 2,353 5.8 -14.6°
Maximum altitude 02:57:59 37° 296° (WNW) 1,200 3.4 -14.1°
Enters shadow 03:01:08 19° 240° (WSW) 1,803 3.8 -13.7°
